Content
SEND FEEDBACK

Daily
Averages
Monthly
Summary
United States of America

STATEN ISLAND, NEW YORK


Home > North America > United States > New York
Elevation: 152 feet     Latitude: 40 35N     Longitude: 074 09W

WEATHER
 
SELECT A DAY
Number of Records: 189,832;   Date Range: 1/1/95 - 9/3/14
 
SHARE

PRINT THIS DATA

[ ← Previous Day ]
WEATHER ALMANAC - MARCH 6, 2013
[ Next Day → ]
[ °C ]   °F
Weather ElementAverageHighLow
Temperature40.6 °F42.8 °F (1:32 pm)39 °F (8:51 pm)
Dewpoint30.8 °F35.1 °F (11:51 am)26.1 °F (11:51 pm)
Humidity68.2 %79 % (11:51 am)58 % (6:51 pm)
Barometer29.89 in29.96 in (1:51 am)29.85 in (2:51 pm)
Wind Speed21.1 mph29.9 mph (8:51 pm)
Wind Gust47.2 mph (1:32 pm)
Weather ElementAverage
Visibility9.9 mi
Wind DirectionNE (47.5 °)

Weather ElementTotal
Precipitation---
Heating Degree Days24.1 (Base 65)
Averaged from 28 records on March 6, 2013
WEATHER CONDITIONS BREAKOUT
WIND DIRECTION BREAKOUT
WEATHER BY HOUR - MARCH 6, 2013
[ °C ]   °F
Local TimeTemperatureDewpointHumidityBarometerVisibilityWind DirectionWind SpeedGust SpeedPrecipitationEventsConditions
1:51 AM41.0 °F32.0 °F70 %29.96 in10.0 miEast (100°)6.9 mph17.3 mphOvercast
2:33 AM41.0 °F32.0 °F70 %29.94 in10.0 miEast (80°)11.5 mphOvercast
2:51 AM39.9 °F32.0 °F73 %29.93 in10.0 miENE (70°)12.7 mphOvercast
3:30 AM39.2 °F32.0 °F75 %29.91 in10.0 miENE (70°)16.1 mph21.9 mphOvercast
3:51 AM39.9 °F30.9 °F70 %29.90 in10.0 miENE (70°)12.7 mph19.6 mphOvercast
4:51 AM39.9 °F30.9 °F70 %29.91 in10.0 miENE (70°)17.3 mph27.6 mphOvercast
5:51 AM39.9 °F30.9 °F70 %29.90 in10.0 miENE (70°)17.3 mph27.6 mphOvercast
6:51 AM39.9 °F30.9 °F70 %29.89 in10.0 miNE (50°)18.4 mph27.6 mphOvercast
7:51 AM39.9 °F32.0 °F73 %29.90 in10.0 miENE (60°)20.7 mph32.2 mphOvercast
8:51 AM39.9 °F33.1 °F77 %29.90 in10.0 miNE (50°)18.4 mph29.9 mphOvercast
9:51 AM41.0 °F32.0 °F70 %29.89 in10.0 miNE (50°)20.7 mph34.5 mphOvercast
10:51 AM41.0 °F34.0 °F76 %29.87 in10.0 miNE (50°)21.9 mph32.2 mph0.00 inOvercast
11:51 AM41.0 °F35.1 °F79 %29.86 in8.0 miNE (50°)17.3 mph29.9 mph0.00 inRainLight Rain
12:51 PM42.1 °F33.1 °F70 %29.86 in10.0 miENE (60°)21.9 mph38.0 mph0.00 inRainLight Rain
1:32 PM42.8 °F30.2 °F61 %29.86 in9.0 miNE (50°)28.8 mph47.2 mph0.00 in
1:51 PM42.1 °F30.0 °F62 %29.86 in9.0 miNE (50°)26.5 mph40.3 mph0.00 inRainLight Rain
2:51 PM42.1 °F30.0 °F62 %29.85 in10.0 miNE (50°)28.8 mph40.3 mph0.00 inOvercast
3:30 PM41.0 °F32.0 °F70 %29.86 in10.0 miNE (40°)19.6 mph31.1 mph0.00 inRainLight Rain
3:51 PM39.9 °F33.1 °F77 %29.87 in10.0 miNNE (30°)25.3 mph34.5 mph0.00 inRainLight Rain
4:15 PM41.0 °F30.2 °F65 %29.87 in10.0 miNE (40°)19.6 mph27.6 mph0.00 inOvercast
4:51 PM41.0 °F30.0 °F65 %29.87 in10.0 miNNE (20°)24.2 mph33.4 mph0.00 inOvercast
5:51 PM42.1 °F28.9 °F60 %29.87 in10.0 miNNE (30°)26.5 mph40.3 mphOvercast
6:51 PM42.1 °F28.0 °F58 %29.90 in10.0 miNNE (20°)28.8 mph39.1 mph0.00 inRainLight Rain
7:51 PM39.9 °F28.0 °F63 %29.91 in10.0 miNNE (20°)28.8 mph40.3 mph0.00 inOvercast
8:51 PM39.0 °F28.9 °F67 %29.93 in10.0 miNNE (20°)29.9 mph39.1 mph0.00 inRainLight Rain
9:51 PM39.0 °F28.0 °F65 %29.92 in10.0 miNNE (20°)21.9 mph38.0 mph0.00 inOvercast
10:51 PM39.0 °F27.0 °F62 %29.93 in10.0 miNNE (20°)25.3 mph33.4 mph0.00 inRainLight Rain
11:51 PM39.0 °F26.1 °F60 %29.93 in10.0 miNNE (20°)23.0 mph34.5 mph0.00 inRainLight Rain
Hourly data recorded from KEWR, located miles away from Staten Island, New York







STORIES FROM OUR PARTNERS